Home > Weather > Kryvyi Rih > Past weeks

Flag for Ukraine Past Weather in Kryvyi Rih, Ukraine — Yesterday and Last 2 Weeks

Now
72 °F

Partly sunny.


Feels Like: 74 °F
Forecast: 63 / 76 °F
Wind: No wind

Location: Krivyy Rih / Dnipropetrovs'k

Current Time: May 31, 2016 at 9:08:49 PM

Latest Report: May 31, 2016 at 8:30 PM


Visibility: N/A

Pressure: 29.83 "Hg

Humidity: 73%

Dew Point: 63 °F

Location of Kryvyi RihLocation

Past Weather in Kryvyi Rih — Graph

°F

Kryvyi Rih Temperature Yesterday

Maximum temperature yesterday: 73 °F (at 5:00 PM)
Minimum temperature yesterday: 63 °F (at 12:00 AM)
Average temperature yesterday: 67 °F

High & Low Weather Summary for the Past Weeks

 TemperatureHumidityPressure
High77 °F (May 31, 1:00 PM)100% (May 31, 5:00 AM)30.01 "Hg (May 31, 5:00 AM)
Low43 °F (May 20, 3:00 AM)31% (May 21, 5:00 PM)29.65 "Hg (May 25, 2:30 PM)
Average62 °F71%29.85 "Hg
* Reported May 16 7:00 PM — May 31 7:30 PM, Kryvyi Rih, Weather by CustomWeather, © 2016

Note: Actual official high and low records may vary slightly from our data, if they occured in-between our weather recording intervals... More about our weather records

Advertising

Kryvyi Rih Weather History for the Previous 24 Hours

Scroll right to see more
 ConditionsComfort  
Time TempWeatherWind HumidityBarometerVisibility
7:30 PM
Tue, May 31
72 °FPartly sunny.No wind69%29.80 "HgN/A
7:00 PM72 °FPartly sunny.No wind69%29.80 "HgN/A
6:30 PM70 °FPartly sunny.3 mph78%29.80 "HgN/A
6:00 PM70 °FThundershowers. Broken clouds.6 mph78%29.80 "HgN/A
5:30 PM72 °FThundershowers. Broken clouds.8 mph73%29.80 "HgN/A
5:00 PM72 °FThundershowers. Broken clouds.8 mph73%29.80 "HgN/A
4:30 PM77 °FThundershowers. Broken clouds.No wind54%29.80 "HgN/A
4:00 PM77 °FBroken clouds.3 mph54%29.80 "HgN/A
3:30 PM77 °FBroken clouds.1 mph57%29.80 "HgN/A
3:00 PM77 °FBroken clouds.3 mph57%29.80 "HgN/A
2:30 PM77 °FBroken clouds.1 mph57%29.80 "HgN/A
2:00 PM77 °FBroken clouds.1 mph57%29.80 "HgN/A
1:30 PM77 °FBroken clouds.No wind57%29.80 "HgN/A
1:00 PM77 °FBroken clouds.3 mph57%29.80 "HgN/A
12:30 PM75 °FBroken clouds.3 mph61%29.80 "HgN/A
12:00 PM75 °FBroken clouds.No wind61%29.80 "HgN/A
11:30 AM73 °FBroken clouds.No wind65%29.80 "HgN/A
11:00 AM73 °FPartly sunny.No wind65%29.80 "HgN/A
10:30 AM72 °FPartly sunny.3 mph69%29.80 "HgN/A
10:00 AM72 °FScattered clouds.3 mph69%29.80 "HgN/A
9:30 AM70 °FSunny.No wind78%29.80 "Hg10 mi
9:00 AM70 °FSunny.No wind78%29.80 "Hg10 mi
8:30 AM66 °FSunny.1 mph94%29.80 "Hg10 mi
8:00 AM66 °FFog.1 mph94%29.80 "Hg2 mi
7:30 AM63 °FFog.3 mph94%29.77 "Hg3 mi
7:00 AM63 °FFog.3 mph94%29.77 "Hg3 mi
6:30 AM59 °FFog.No wind100%29.77 "Hg0 mi
6:00 AM59 °FFog.No wind100%29.77 "Hg1 mi
5:30 AM59 °FFog.No wind100%29.77 "Hg1 mi
5:00 AM59 °FFog.No wind100%29.77 "Hg1 mi
4:30 AM59 °FFog.No wind94%29.77 "Hg1 mi
4:03 AM59 °FFog.No wind94%29.77 "Hg2 mi
4:00 AM59 °FFog.No wind94%29.77 "Hg2 mi
3:00 AM61 °FClear.3 mph88%29.77 "Hg10 mi
2:30 AM61 °FClear.3 mph88%29.77 "Hg10 mi
2:00 AM61 °FClear.3 mph88%29.77 "Hg10 mi
1:30 AM63 °FClear.No wind88%29.77 "Hg10 mi
1:00 AM63 °FClear.No wind88%29.77 "Hg10 mi
12:30 AM64 °FClear.3 mph83%29.77 "Hg10 mi
11:30 PM
Mon, May 30
64 °FClear.No wind78%29.77 "Hg10 mi
11:00 PM64 °FClear.No wind78%29.77 "Hg10 mi
10:30 PM66 °FClear.3 mph78%29.77 "Hg10 mi
10:00 PM66 °FClear.No wind78%29.77 "Hg10 mi
9:30 PM70 °FSunny.3 mph73%29.77 "Hg10 mi
9:00 PM70 °FSunny.1 mph73%29.77 "Hg10 mi
Weather by CustomWeather, © 2016

See weather overviewHow to use our weather pages